This demonstration page uses our WeatherBlox Daily Observations layout. Learn more.

Left ArrowRight Arrow

Hourly Observations for September 9, 2018

Temp ( °F °C ) Dew Point ( °F °C ) Humidity (%) Winds ( mph kmh ) Pressure ( in mb ) Visibility ( mi km ) Precip ( " mm )
12:53 am 00:53 Partly Cloudy 61 16.1 60 15.6 97 97 SE 6 9 30.08 1019 10 16 0.00 0.00
1:44 am 01:44 Partly Cloudy 61 16 61 16 100 100 SSE 5 7 30.06 1018 8 13 0.00 0.00
1:53 am 01:53 Mostly Cloudy with Mist and Fog 61 16.1 60 15.6 97 97 SSE 6 9 30.07 1018 3 5 0.00 0.00
1:57 am 01:57 Mostly Cloudy with Mist and Fog 60 15.6 60 15.6 100 100 SSE 6 9 30.06 1018 2 3 0.00 0.00
2:16 am 02:16 Mostly Cloudy with Mist and Fog 60 15.6 60 15.6 100 100 SE 3 6 30.06 1018 1 1 0.00 0.00
2:53 am 02:53 Mostly Cloudy with Fog 59 15 59 15 100 100 S 3 6 30.07 1018 0 0 0.00 0.00
3:53 am 03:53 Mostly Cloudy with Fog 60 15.6 60 15.6 100 100 S 5 7 30.06 1018 1 1 0.00 0.00
4:13 am 04:13 Cloudy with Mist and Fog 60 15.6 60 15.6 100 100 SSE 7 11 30.06 1018 2 2 0.00 0.00
4:26 am 04:26 Cloudy with Mist and Fog 60 15.6 60 15.6 100 100 SSE 9 15 30.06 1018 2 3 0.00 0.00
4:38 am 04:38 Cloudy with Mist and Fog 61 16 61 16 100 100 SSE 6 9 30.03 1017 5 8 0.00 0.00
4:53 am 04:53 Cloudy with Mist and Fog 60 15.6 60 15.6 100 100 SSE 8 13 30.04 1017 4 6 0.00 0.00
4:59 am 04:59 Cloudy with Mist and Fog 60 15.6 60 15.6 100 100 S 7 11 30.03 1017 2 3 0.00 0.00
5:15 am 05:15 Mostly Cloudy with Mist and Fog 60 15.6 60 15.6 100 100 S 6 9 30.03 1017 1 1 0.00 0.00
5:26 am 05:26 Cloudy with Mist and Fog 61 16 61 16 100 100 S 7 11 30.03 1017 1 2 0.00 0.00
5:51 am 05:51 Cloudy with Mist and Fog 61 16 61 16 100 100 S 9 15 30.03 1017 3 5 0.00 0.00
5:53 am 05:53 Cloudy with Mist and Fog 60 15.6 60 15.6 100 100 S 10 17 30.04 1017 3 5 0.00 0.00
6:43 am 06:43 Cloudy 60 15.6 60 15.6 100 100 S 7 11 30.03 1017 10 16 0.00 0.00
6:53 am 06:53 Cloudy 60 15.6 59 15 96 96 S 8 13 30.04 1017 10 16 0.00 0.00
7:53 am 07:53 Cloudy 60 15.6 59 15 96 96 S 8 13 30.06 1018 10 16 0.00 0.00
8:26 am 08:26 Cloudy 61 16 59 15 94 94 SSW 5 7 30.06 1018 10 16 0.00 0.00
8:39 am 08:39 Cloudy 61 16.1 59 15 93 93 S 6 9 30.06 1018 10 16 0.00 0.00
8:53 am 08:53 Cloudy 61 16.1 60 15.6 97 97 SSW 7 11 30.07 1018 10 16 0.00 0.00
9:38 am 09:38 Cloudy 63 17 59 15 88 88 S 8 13 30.06 1018 10 16 0.00 0.00
9:46 am 09:46 Cloudy 63 17 59 15 88 88 S 9 15 30.06 1018 10 16 0.00 0.00
9:53 am 09:53 Cloudy 62 16.7 59 15 90 90 S 8 13 30.07 1018 10 16 0.00 0.00
10:01 am 10:01 Cloudy 62 16.7 58 14.4 86 86 S 9 15 30.06 1018 10 16 0.00 0.00
10:53 am 10:53 Cloudy 64 17.8 59 15 84 84 S 6 9 30.07 1018 10 16 0.00 0.00
11:30 am 11:30 Cloudy 64 17.8 59 15 84 84 S 8 13 30.06 1018 10 16 0.00 0.00
11:53 am 11:53 Cloudy 63 17.2 58 14.4 84 84 SSW 6 9 30.07 1018 10 16 0.00 0.00
12:09 pm 12:09 Cloudy 64 17.8 58 14.4 81 81 SW 5 7 30.06 1018 10 16 0.00 0.00
12:53 pm 12:53 Cloudy 65 18.3 58 14.4 78 78 S 9 15 30.06 1018 10 16 0.00 0.00
1:02 pm 13:02 Cloudy 64 18 57 14 78 78 SSW 6 9 30.06 1018 10 16 0.00 0.00
1:53 pm 13:53 Cloudy 67 19.4 58 14.4 73 73 SSW 9 15 30.03 1017 10 16 0.00 0.00
2:53 pm 14:53 Mostly Cloudy 69 20.6 58 14.4 68 68 SSW 7 11 30.02 1017 10 16 0.00 0.00
3:04 pm 15:04 Partly Cloudy 70 21 57 14 64 64 S 9 15 29.97 1015 10 16 0.00 0.00
3:53 pm 15:53 Sunny 70 21.1 58 14.4 66 66 S 10 17 29.98 1015 10 16 0.00 0.00
4:53 pm 16:53 Sunny 72 22.2 58 14.4 61 61 S 9 15 29.96 1015 10 16 0.00 0.00
5:53 pm 17:53 Sunny 71 21.7 58 14.4 63 63 S 7 11 29.96 1015 10 16 0.00 0.00
6:53 pm 18:53 Sunny 70 21.1 58 14.4 66 66 S 7 11 29.96 1015 10 16 0.00 0.00
7:53 pm 19:53 Sunny 68 20 59 15 73 73 S 5 7 29.97 1015 10 16 0.00 0.00
8:53 pm 20:53 Clear 65 18.3 58 14.4 78 78 S 6 9 29.98 1015 10 16 0.00 0.00
9:53 pm 21:53 Clear 65 18.3 58 14.4 78 78 SSE 8 13 29.98 1015 10 16 0.00 0.00
10:53 pm 22:53 Clear 63 17.2 57 13.9 81 81 S 6 9 29.99 1016 10 16 0.00 0.00
11:53 pm 23:53 Clear 62 16.7 57 13.9 84 84 SSE 9 15 29.99 1016 10 16 0.00 0.00

Powered by AerisWeather